RH
43 44 44 46 46 47 44 43 35 25 23 24 26 28 27 30 33 33 33 34 34 33 31 28 26 23 22 20 18 16 18 19 19 20 16 18 23 28 35 35 39 40 41
47 45 42 45 46 45 45 42 33 25 26 29 34 34 34 36 36 36 37 37 38 37 33 29 26 23 22 22 18 18 15 19 22 21 19 18 20 31 38 45 50 50 52
44 42 41 45 46 45 44 39 33 28 30 35 36 35 35 35 35 38 40 41 41 39 34 30 26 22 22 21 19 17 15 18 19 18 21 24 26 29 43 52 57 59 62
38 41 42 45 47 47 44 39 35 34 35 34 36 35 37 38 39 42 43 46 44 39 34 30 25 22 20 18 17 15 15 15 17 17 23 33 41 43 43 61 65 66 63
39 43 43 45 47 48 44 41 38 38 36 35 37 36 38 39 41 44 47 48 45 39 35 29 26 21 20 16 15 13 16 18 15 19 29 36 43 54 62 62 66 69 66
47 52 49 48 48 49 46 43 41 40 38 36 37 40 43 44 48 51 53 53 46 39 35 29 25 22 18 15 15 13 20 19 15 18 29 34 40 54 70 72 71 67 68
52 55 54 54 56 54 50 46 43 42 40 38 40 43 46 50 56 56 58 54 48 44 35 29 25 20 17 14 14 18 19 21 15 19 29 31 37 56 74 76 72 69 73
48 53 56 54 54 54 54 51 49 47 43 43 46 49 55 58 59 61 58 50 46 39 34 30 23 19 15 13 14 21 19 22 25 24 24 27 36 50 73 78 77 75 77
48 55 58 58 58 56 55 52 52 51 47 47 51 58 60 65 66 63 51 48 42 40 33 26 23 19 15 14 14 21 18 20 28 25 20 25 34 44 69 80 81 81 82
50 55 59 60 61 63 64 61 57 54 50 53 60 65 69 71 71 61 55 47 44 36 29 26 21 18 15 15 15 18 20 20 26 23 19 24 30 44 63 79 86 88 89
56 56 60 63 66 66 66 67 63 60 56 61 68 75 76 76 69 60 55 49 40 33 29 24 19 16 16 16 18 20 22 22 21 18 20 25 28 42 58 75 89 93 96
59 60 63 65 67 70 70 69 67 64 61 70 78 79 80 74 66 62 54 46 37 31 25 21 18 17 17 19 21 24 25 24 18 15 20 24 23 33 50 71 86 94 97
64 65 68 69 70 71 71 71 71 68 68 75 79 83 76 73 68 62 52 40 34 26 22 21 18 17 19 22 26 29 31 26 18 17 21 24 21 20 29 52 74 90 96
75 74 76 77 77 81 83 82 78 74 77 71 80 79 76 75 68 60 48 36 28 25 23 19 19 19 21 24 31 30 32 28 21 20 22 20 22 24 20 26 38 59 90
70 70 74 76 77 77 75 77 77 70 67 76 78 79 74 74 70 58 43 32 28 26 25 22 23 25 26 27 32 32 33 29 26 21 25 28 20 22 25 19 24 29 39
72 72 74 72 72 73 72 76 76 70 74 78 79 73 75 75 66 54 40 33 28 26 22 22 23 27 32 31 35 34 36 32 29 24 26 30 29 25 24 24 19 19 22
71 71 74 72 70 72 74 77 77 73 74 76 75 75 75 69 60 51 40 32 28 25 21 23 24 28 34 35 35 36 37 34 33 30 28 28 30 33 30 28 27 24 21
68 67 69 70 74 76 74 71 71 70 70 73 75 72 70 62 58 48 39 31 29 26 24 26 28 34 37 38 39 39 38 38 37 36 33 34 31 32 32 33 33 31 31
72 73 75 76 75 77 77 78 76 74 74 79 80 73 66 64 56 45 34 32 27 27 27 32 35 40 44 42 43 42 41 38 34 35 37 38 37 36 33 31 34 37 36
67 72 74 76 75 77 77 77 75 77 76 76 79 71 68 63 51 38 34 28 29 30 34 37 39 42 44 40 31 28 39 39 44 49 47 41 38 37 36 37 36 36 36
65 65 65 70 77 76 77 79 77 77 79 84 72 67 64 55 42 36 30 30 33 37 39 38 38 41 35 28 24 28 36 42 47 47 40 40 43 45 42 43 42 41 42
58 61 66 71 75 77 82 83 79 85 80 73 65 61 54 44 37 35 37 42 47 48 48 48 42 33 26 23 24 27 26 27 34 35 28 28 31 37 43 48 48 47 46
57 66 68 71 76 80 84 83 79 78 70 62 58 56 49 41 40 40 40 46 50 52 51 47 35 32 34 29 24 27 28 29 34 31 30 29 35 37 38 38 42 46 52
54 62 67 71 73 76 75 74 70 65 63 62 60 52 45 43 41 42 42 52 53 53 46 34 31 32 34 36 30 28 30 31 33 32 33 37 38 39 40 40 42 45 46
63 64 68 69 69 68 67 66 68 67 67 64 56 46 44 45 43 50 54 56 53 44 34 31 32 34 35 35 36 38 39 37 35 35 37 43 49 51 50 47 42 44 48
70 69 66 66 67 70 71 70 70 69 66 62 53 50 49 49 52 57 57 51 45 36 33 34 34 36 38 38 36 32 32 35 36 37 51 54 55 56 54 54 57 53 51